Fond du Lac, WI

9:31 AM CDT on May 24, 2018 (GMT -0500)
Fond du Lac County

Weather History for KFLD - March, 2014

Change the Weather History Date:

Saturday, March 15, 2014

  Actual Average Record
Temperature  
Mean Temperature 28 °F -  
Max Temperature 36 °F 40 °F 68 °F (2012)
Min Temperature 21 °F 22 °F -5 °F (1956)
Degree Days  
Heating Degree Days 36    
Moisture  
Dew Point 18 °F    
Average Humidity 63    
Maximum Humidity 72    
Minimum Humidity 50    
Precipitation  
Precipitation 0.00 in - - ()
Sea Level Pressure  
Sea Level Pressure 30.14 in    
Wind  
Wind Speed 12 mph (NNE)    
Max Wind Speed 17 mph    
Max Gust Speed 24 mph    
Visibility 10 miles    
Events      
Averages and records for this station are not official NWS values.
T = Trace of Precipitation, MM = Missing Value Source: NWS Daily Summary

Daily Weather History Graph

Daily Weather History Graph

Search for Another Location

Airport or City:

Astronomy

Mar. 15, 2014 Rise Set
Actual Time 7:06 AM CDT 7:00 PM CDT
Civil Twilight 6:37 AM CDT 7:28 PM CDT
Nautical Twilight 6:04 AM CDT 8:02 PM CDT
Astronomical Twilight 5:30 AM CDT 8:36 PM CDT
Moon 6:19 PM CDT (3/15) 6:19 AM CDT (3/15)
Length of Visible Light 12h 51m
Length of Day
11h 54m
Waxing Gibbous, 99% of the Moon is Illuminated
Mar 15
Waxing Gibbous
Mar 16
Full
Mar 23
Last Quarter
Mar 30
New
Apr 7
First Quarter

Hourly Weather History & Observations

Time (CDT) Temp. Windchill Dew Point Humidity Pressure Visibility Wind Dir Wind Speed Gust Speed Precip Events Conditions
12:53 AM 36.0 °F 26.3 °F 24.1 °F 62% 29.81 in 10.0 mi WNW 16.1 mph - N/A   Overcast
1:53 AM 35.1 °F 25.5 °F 23.0 °F 61% 29.84 in 10.0 mi WNW 15.0 mph 21.9 mph N/A   Overcast
2:53 AM 33.1 °F 23.9 °F 23.0 °F 66% 29.88 in 10.0 mi WNW 12.7 mph - N/A   Overcast
3:53 AM 32.0 °F 23.0 °F 21.9 °F 66% 29.90 in 10.0 mi WNW 11.5 mph - N/A   Overcast
4:53 AM 30.9 °F 21.7 °F 21.9 °F 69% 29.92 in 10.0 mi NW 11.5 mph - N/A   Overcast
5:53 AM 30.9 °F 22.2 °F 21.0 °F 67% 29.97 in 10.0 mi NNW 10.4 mph - N/A   Overcast
6:53 AM 30.9 °F 24.3 °F 19.9 °F 64% 30.01 in 10.0 mi NNW 6.9 mph - N/A   Overcast
7:37 AM 30.0 °F 21.7 °F 19.9 °F 66% 30.00 in 10.0 mi NNW 9.2 mph - N/A   Overcast
7:53 AM 30.0 °F 21.1 °F 19.0 °F 64% 30.04 in 10.0 mi NNW 10.4 mph - N/A   Overcast
8:15 AM 30.0 °F 21.1 °F 21.0 °F 69% 30.02 in 10.0 mi NNE 10.4 mph - N/A   Overcast
8:53 AM 30.0 °F 21.1 °F 19.0 °F 64% 30.08 in 10.0 mi NNE 10.4 mph - N/A   Overcast
9:43 AM 30.0 °F 21.7 °F 16.0 °F 56% 30.08 in 10.0 mi NNW 9.2 mph - N/A   Overcast
9:53 AM 30.9 °F 22.8 °F 18.0 °F 59% 30.11 in 10.0 mi NNW 9.2 mph - N/A   Overcast
10:53 AM 32.0 °F 24.8 °F 18.0 °F 56% 30.12 in 10.0 mi NNE 8.1 mph - N/A   Mostly Cloudy
11:53 AM 32.0 °F 24.2 °F 19.0 °F 59% 30.14 in 10.0 mi NE 9.2 mph - N/A   Partly Cloudy
12:53 PM 32.0 °F 24.2 °F 19.0 °F 59% 30.16 in 10.0 mi NE 9.2 mph - N/A   Scattered Clouds
1:53 PM 33.1 °F 30.0 °F 19.0 °F 56% 30.16 in 10.0 mi Variable 3.5 mph - N/A   Partly Cloudy
2:53 PM 33.1 °F 28.7 °F 19.0 °F 56% 30.17 in 10.0 mi South 4.6 mph - N/A   Mostly Cloudy
3:53 PM 34.0 °F 28.8 °F 18.0 °F 52% 30.19 in 10.0 mi North 5.8 mph - N/A   Partly Cloudy
4:53 PM 34.0 °F 28.8 °F 17.1 °F 50% 30.21 in 10.0 mi NE 5.8 mph - N/A   Partly Cloudy
5:53 PM 32.0 °F 24.8 °F 17.1 °F 54% 30.22 in 10.0 mi NE 8.1 mph - N/A   Clear
6:53 PM 28.0 °F 20.0 °F 19.0 °F 69% 30.25 in 10.0 mi ESE 8.1 mph - N/A   Overcast
7:53 PM 26.1 °F 15.0 °F 18.0 °F 71% 30.28 in 10.0 mi East 12.7 mph - N/A   Clear
8:30 PM 25.0 °F 13.1 °F 17.1 °F 72% 30.27 in 10.0 mi East 13.8 mph - N/A   Mostly Cloudy
8:53 PM 25.0 °F 13.6 °F 16.0 °F 69% 30.32 in 10.0 mi East 12.7 mph - N/A   Overcast
9:53 PM 24.1 °F 12.5 °F 14.0 °F 65% 30.36 in 10.0 mi East 12.7 mph - N/A   Overcast
10:17 PM 23.0 °F 10.1 °F 12.9 °F 65% 30.34 in 10.0 mi ENE 15.0 mph - N/A   Overcast
10:25 PM 23.0 °F 11.1 °F 12.9 °F 65% 30.34 in 10.0 mi East 12.7 mph - N/A   Overcast
10:53 PM 21.9 °F 8.7 °F 12.0 °F 66% 30.40 in 10.0 mi ENE 15.0 mph - N/A   Overcast
11:03 PM 21.9 °F 8.2 °F 12.0 °F 66% 30.37 in 10.0 mi East 16.1 mph - N/A   Overcast
11:53 PM 21.0 °F 6.6 °F 10.9 °F 65% 30.43 in 10.0 mi ENE 17.3 mph 24.2 mph N/A   Overcast